Location: Famechon
(49.7599°N, 2.0615°E)
Time: 11:59:49
(UTC+00:00)

Cosmos 2360 Rocket - Pass Details

Date: 03 February 2023
Orbit: 832 x 846 km, 71.0° (Epoch: 24 March)

Event Time Altitude Azimuth Distance (km) Brightness Sun altitude
Rises 18:03:24 0° 183° (S) 3,373 5.5 -12.1°
Reaches altitude 10° 18:05:57 10° 176° (S) 2,445 4.7 -12.5°
Maximum altitude 18:11:09 41° 108° (ESE) 1,211 2.6 -13.4°
Enters shadow 18:15:55 12° 42° (NE) 2,302 4.0 -14.1°
